Location: Bremen
(53.0793°N, 8.8017°E)
Time: 16:58:18
(UTC+01:00)

ISS - Pass Details

Date: 18 November 2025
Orbit: 416 x 420 km, 51.6° (Epoch: 12 December)

Event Time Altitude Azimuth Distance (km) Brightness Sun altitude
Rises 17:22:09 0° 219° (SW) 2,363 1.2 -8.5°
Reaches altitude 10° 17:24:28 10° 206° (SSW) 1,500 -0.2 -8.8°
Maximum altitude 17:27:15 24° 150° (SSE) 914 -2.1 -9.2°
Enters shadow 17:29:47 11° 97° (E) 1,418 -1.6 -9.6°
